Reflectivity
12 10 0 5 9 -20 -20 -20 -20 -20 -19 -20 3 5 -18 -20 -13 5 24 16 -20 -20
16 -16 -4 0 -20 -20 -18 -20 -20 -20 -18 -20 -10 12 12 -19 -20 -9 19 21 6 -20
13 9 8 8 -2 -13 -14 -20 -20 -20 -20 -20 -5 -17 -5 13 8 6 12 20 12 3
-6 3 11 -20 -16 -18 -20 -18 -20 -20 -15 9 -9 34 25 19 11 24 16 20 21 17
5 -0 -15 7 12 -8 13 -20 -20 -6 -20 5 5 13 28 29 30 31 14 3 15 18
-20 -5 -14 25 -17 -17 -7 10 21 11 18 32 27 24 23 30 33 33 16 -9 13 20
-20 -20 -20 -18 -20 14 16 5 13 20 22 19 21 25 29 33 35 35 35 3 22 21
-20 -20 -20 -20 -20 4 3 21 6 23 23 23 25 22 29 33 35 31 29 15 14 20
-20 -20 -20 -20 -9 7 11 24 9 18 25 26 29 28 32 37 36 36 18 9 10 14
-20 -20 -20 -20 -20 -15 -14 21 25 28 21 23 26 32 34 36 34 33 19 4 5 1
-20 -20 -20 -20 -20 -20 -20 -10 30 19 14 19 21 27 34 34 30 22 12 6 -7 6
-20 -20 -20 -20 -20 -20 -20 -20 4 32 24 20 15 25 33 29 30 32 17 9 5 1
-20 -20 -20 -20 -20 -20 -20 -20 -16 3 15 26 22 28 32 27 28 24 26 15 1 -9
-20 -20 -20 -20 -20 -20 -20 -19 -9 -14 12 23 29 26 30 31 26 30 34 30 18 11
Wind_Speed
6 5 6 8 7 7 8 9 12 12 13 13 14 14 16 14 15 18 18 19 14 10
8 8 7 9 8 7 8 8 11 13 14 14 15 13 15 14 16 17 19 18 17 13
10 9 9 9 10 11 10 10 12 13 14 15 15 16 16 15 17 18 15 14 18 16
12 11 12 8 10 11 11 12 13 13 14 14 16 17 15 15 17 18 18 16 17 17
12 11 11 9 8 10 11 12 13 14 14 14 14 14 17 14 12 17 17 16 17 17
13 12 11 11 10 10 12 11 12 13 13 14 15 14 14 13 13 15 16 15 17 16
13 14 13 13 12 12 9 11 11 13 14 14 14 15 14 13 12 13 14 15 15 14
12 13 13 12 11 11 10 9 11 12 12 12 12 10 12 12 12 11 12 10 11 12
12 12 13 13 13 11 12 7 9 9 11 12 9 14 16 11 10 9 9 10 7 6
12 13 13 14 13 12 12 9 5 7 8 12 11 19 18 16 8 10 9 10 9 8
11 13 13 12 13 12 11 10 4 4 4 7 8 20 20 17 9 7 9 11 12 12
11 12 13 11 13 11 10 9 4 2 3 4 4 17 20 15 8 8 9 10 11 14
11 11 11 11 11 9 8 9 4 3 2 5 5 16 21 15 8 8 8 8 9 17
11 10 10 8 7 8 8 7 5 1 1 3 6 10 20 19 9 8 8 8 9 9
Wind_Direction
228 209 212 206 211 218 210 210 202 199 210 206 208 207 200 194 194 195 183 189 195 188
335 227 221 217 211 214 214 210 203 202 206 209 212 211 205 198 198 203 191 186 184 191
338 333 256 221 217 212 213 207 200 202 204 206 206 206 206 203 198 200 197 180 184 190
340 337 329 229 216 217 216 211 209 204 202 205 207 200 200 211 190 199 190 179 184 186
339 338 335 334 313 230 227 222 215 209 204 193 201 199 199 196 189 190 188 182 180 189
339 335 335 321 308 272 227 224 220 214 209 199 194 189 199 183 185 188 183 184 180 183
334 332 332 328 325 326 233 232 229 225 220 206 192 187 184 186 185 187 186 183 184 183
326 326 327 325 322 318 303 231 218 218 213 193 186 179 170 180 179 187 181 168 181 183
324 326 328 327 333 325 319 256 220 218 195 180 181 165 165 166 171 189 166 159 143 145
320 324 328 328 332 333 325 307 247 228 200 196 180 164 165 165 170 181 169 146 155 149
319 320 323 327 331 333 329 320 276 238 215 194 182 167 162 168 176 164 156 163 165 159
315 314 316 322 325 326 327 320 300 273 199 200 202 166 157 157 143 159 158 161 167 157
306 304 306 309 319 318 317 309 308 305 206 178 165 170 163 157 159 154 150 156 161 167
298 298 296 298 309 314 315 322 322 304 247 175 166 161 168 165 150 157 156 157 156 161